Weather in Chalcis

Greece     38°27′42″N   23°35′32″E
В апреле 2022 года жителям России запретили посещать сайт meteo.paraplan.net по решению Генеральной прокуратуры. Аудитория сайта уменьшилась в 10 раз. Владельцы сайта не видят смысла в поддержке погодного сервера в таких условиях. Сайт будет закрыт в октябре.
temp.,
°C
wind,
m/s
gust,
m/s
humid.,
%
clouds,
%
prec.,
mm/h
press.,
hPa
HPBL,
m
25 september, sun
sun2500:00+18se33540 0.0 1020182
03:00+17sse22550 0.0 1020135
06:00+17s11590 0.0 101996
09:00+18wsw01543 0.0 1020222
12:00+22ne0143100 0.0 1020600
15:00+23ne22395 0.0 1018449
18:00+24ese35395 0.0 1016585
21:00+21se455315 0.0 1017245
26 september, mon
mon2600:00+19sse23595 0.0 1017114
03:00+18ssw226329 0.0 101695
06:00+18ssw1160100 0.0 101691
09:00+19sw1147100 0.0 1016192
12:00+23ese123338 0.0 1015571
15:00+27ese3431100 0.0 1012868
18:00+25ese5641100 0.0 1011258
21:00+22sse455385 0.0 1011194
27 september, tue
tue2700:00+20sse336132 0.0 1011123
03:00+19sse336546 0.0 1009120
06:00+19sse2261100 0.0 1008114
09:00+21sse23495 0.0 1007245
12:00+26sw355169 0.0 1006643
15:00+27ssw4747100 0.0 1005728
18:00+26wsw4854100 0.0 1004586
21:00+23s236886 0.0 100553
28 september, wed
wed2800:00+22s23690 0.0 100682
03:00+21ssw22700 0.0 100680
06:00+20sw22730 0.0 100675
09:00+21sw12620 0.0 1007206
12:00+25nnw22430 0.0 1007641
15:00+26nw23402 0.0 10061114
18:00+28sw46402 0.0 1005905
21:00+24ssw34530 0.0 100663
29 september, thu
thu2900:00+22sw22560 0.0 100834
03:00+22wsw12550 0.0 100871
06:00+20sw11602 0.0 100877
09:00+22sw11575 0.0 1009186
12:00+25nnw124536 0.0 1010642
15:00+27sw2340100 0.0 10081012
18:00+27ssw4544100 0.0 1008535
21:00+24sse4559100 0.0 100986